Location: Monaco
(33.8731°N, 118.3592°W)
Time: 12:32:22
(UTC+00:00)

Daily predictions for brighter satellites

Satellite Brightness Start Highest point End
(mag) Time Altitude Azimuth Time Altitude Azimuth Time Altitude Azimuth
USA 267 4.4 12:00:41 10° ESE 12:06:51 46° NE 12:13:01 10° NNW
CZ-2C R/B 4.1 12:04:00 10° NNW 12:06:54 21° WNW 12:07:45 20° W
ARIANE 5 R/B 4.3 12:04:08 10° NNW 12:07:01 15° WNW 12:08:33 13° W
MSX 4.5 12:02:42 10° N 12:07:57 37° WNW 12:11:53 17° SW
CZ-4B R/B 2.4 12:08:37 10° SSE 12:11:46 48° ENE 12:14:50 10° N
Cosmos 1745 Rocket 4.4 12:06:31 10° NNW 12:12:18 42° W 12:18:01 10° SSW
Cosmos 1455 3.3 12:09:52 10° SSE 12:13:34 47° E 12:17:18 10° NNE
Landsat 5 3.9 12:11:05 10° SSW 12:14:40 35° W 12:18:23 10° NNW
Cosmos 1300 4.0 12:15:09 19° WSW 12:16:26 22° WNW 12:19:28 10° NNW
Lacrosse 5 rocket 2.2 12:12:36 11° SSW 12:16:52 53° SE 12:21:21 10° NE
Cosmos 1953 Rocket 4.4 12:13:36 10° NNW 12:17:29 30° W 12:21:20 10° SSW
Meteor 2-1 Rocket 4.4 12:17:20 10° S 12:23:09 84° E 12:29:05 10° N
SeaSat 1 2.8 12:18:45 10° NNE 12:23:28 47° WNW 12:27:59 11° SW
Cosmos 1900 4.5 12:18:28 10° NW 12:23:29 55° WSW 12:28:28 10° S
ADEOS Rocket 4.1 12:17:05 10° SSE 12:24:36 68° ENE 12:32:19 10° N
ERS-2 3.1 12:24:34 10° SSW 12:27:42 27° W 12:30:50 10° NW
Cosmos 2058 3.3 12:24:42 10° N 12:28:53 70° E 12:33:04 10° SSE
TSX-5 3.4 12:39:03 10° SW 12:42:12 55° WNW 12:45:18 10° NNE
SAR-Lupe-4 3.7 12:40:44 10° S 12:44:13 50° W 12:47:42 10° NNW
METEOR-M 4.3 12:39:38 10° NNE 12:45:00 79° ESE 12:50:20 10° S
Cosmos 1689 Rocket 2.8 12:42:39 10° SSE 12:45:30 57° ENE 12:48:21 10° N
CZ-2C R/B 3.5 12:45:58 10° NNW 12:49:41 25° WNW 12:53:28 10° SW
ATLAS 3B CENTAUR R/B 4.1 12:51:02 10° W 12:57:19 18° SW 13:01:18 10° S
